QPF
0.00 0.00 0.00 0.00 0.04 0.06 0.02 0.01 0.02 0.01 0.00 0.00 0.01 0.04 0.01 0.01 0.06 0.05 0.02 0.02 0.04 0.03 0.02 0.00 0.00 0.00 0.00 0.00 0.02 0.04 0.01 0.01 0.00 0.00 0.07 0.03 0.00 0.00 0.00 0.00 0.00 0.00 0.00
0.00 0.00 0.00 0.04 0.07 0.03 0.00 0.02 0.00 0.00 0.00 0.00 0.00 0.01 0.01 0.01 0.01 0.00 0.00 0.00 0.00 0.00 0.00 0.00 0.00 0.00 0.00 0.00 0.00 0.00 0.00 0.00 0.00 0.00 0.02 0.00 0.00 0.00 0.00 0.00 0.00 0.00 0.00
0.00 0.00 0.00 0.05 0.08 0.01 0.01 0.01 0.01 0.03 0.01 0.00 0.00 0.04 0.02 0.01 0.01 0.00 0.00 0.00 0.00 0.00 0.00 0.00 0.00 0.00 0.00 0.00 0.00 0.00 0.00 0.00 0.00 0.00 0.00 0.00 0.00 0.00 0.00 0.00 0.00 0.00 0.00
0.00 0.00 0.00 0.02 0.02 0.02 0.01 0.01 0.01 0.01 0.00 0.00 0.03 0.02 0.00 0.00 0.00 0.00 0.00 0.00 0.00 0.00 0.00 0.00 0.00 0.00 0.00 0.00 0.00 0.00 0.00 0.00 0.00 0.00 0.00 0.00 0.00 0.00 0.00 0.00 0.00 0.00 0.00
0.00 0.00 0.00 0.01 0.00 0.00 0.02 0.01 0.00 0.00 0.00 0.00 0.00 0.00 0.00 0.00 0.00 0.00 0.00 0.00 0.00 0.00 0.00 0.00 0.00 0.00 0.00 0.00 0.00 0.00 0.00 0.00 0.00 0.00 0.00 0.00 0.00 0.00 0.00 0.00 0.00 0.00 0.00
0.00 0.00 0.00 0.00 0.01 0.00 0.00 0.00 0.00 0.00 0.03 0.03 0.01 0.00 0.00 0.00 0.00 0.00 0.00 0.00 0.00 0.00 0.00 0.00 0.00 0.00 0.00 0.00 0.00 0.00 0.00 0.00 0.00 0.00 0.00 0.00 0.00 0.00 0.00 0.00 0.00 0.00 0.00
0.00 0.00 0.00 0.00 0.00 0.00 0.00 0.00 0.01 0.02 0.01 0.00 0.00 0.00 0.00 0.00 0.00 0.00 0.00 0.00 0.00 0.00 0.00 0.00 0.00 0.00 0.00 0.00 0.00 0.00 0.00 0.00 0.00 0.00 0.00 0.00 0.00 0.01 0.00 0.03 0.00 0.01 0.00
0.00 0.00 0.00 0.00 0.00 0.00 0.00 0.00 0.00 0.00 0.00 0.00 0.00 0.00 0.00 0.00 0.00 0.00 0.00 0.00 0.00 0.00 0.00 0.00 0.00 0.00 0.00 0.00 0.00 0.00 0.00 0.00 0.00 0.00 0.00 0.00 0.00 0.00 0.01 0.08 0.06 0.06 0.05
0.00 0.00 0.00 0.00 0.00 0.00 0.00 0.00 0.00 0.00 0.00 0.00 0.00 0.00 0.00 0.01 0.01 0.00 0.00 0.00 0.00 0.00 0.00 0.00 0.00 0.00 0.00 0.00 0.00 0.02 0.01 0.05 0.00 0.01 0.00 0.00 0.00 0.00 0.02 0.09 0.10 0.07 0.06
0.00 0.00 0.00 0.00 0.00 0.00 0.00 0.00 0.00 0.00 0.00 0.00 0.00 0.02 0.02 0.00 0.00 0.00 0.00 0.00 0.00 0.00 0.00 0.00 0.00 0.00 0.01 0.00 0.00 0.04 0.01 0.00 0.00 0.01 0.00 0.00 0.00 0.00 0.09 0.08 0.07 0.07 0.06
0.00 0.00 0.00 0.00 0.00 0.00 0.00 0.00 0.00 0.00 0.00 0.01 0.00 0.00 0.00 0.00 0.00 0.00 0.00 0.00 0.01 0.01 0.00 0.00 0.02 0.05 0.02 0.00 0.00 0.00 0.01 0.00 0.01 0.01 0.01 0.00 0.00 0.02 0.08 0.09 0.06 0.07 0.08
0.00 0.00 0.00 0.00 0.00 0.00 0.00 0.00 0.00 0.00 0.00 0.00 0.00 0.00 0.00 0.00 0.00 0.00 0.00 0.00 0.00 0.00 0.00 0.00 0.00 0.00 0.00 0.00 0.01 0.00 0.00 0.00 0.00 0.00 0.01 0.01 0.00 0.00 0.00 0.00 0.01 0.03 0.05
0.00 0.00 0.00 0.00 0.00 0.00 0.00 0.00 0.00 0.00 0.00 0.00 0.00 0.00 0.00 0.00 0.00 0.00 0.00 0.00 0.00 0.00 0.00 0.00 0.00 0.00 0.00 0.00 0.00 0.00 0.00 0.00 0.00 0.00 0.00 0.00 0.00 0.00 0.00 0.00 0.00 0.00 0.00
0.00 0.00 0.00 0.00 0.00 0.00 0.00 0.00 0.00 0.00 0.00 0.00 0.00 0.00 0.00 0.00 0.00 0.00 0.00 0.00 0.00 0.00 0.00 0.00 0.00 0.00 0.00 0.00 0.00 0.00 0.00 0.00 0.00 0.00 0.00 0.00 0.00 0.00 0.00 0.00 0.00 0.00 0.00
0.00 0.00 0.00 0.00 0.00 0.00 0.00 0.00 0.00 0.00 0.00 0.00 0.00 0.00 0.00 0.00 0.00 0.00 0.00 0.00 0.00 0.00 0.00 0.00 0.00 0.00 0.00 0.00 0.00 0.00 0.00 0.00 0.00 0.00 0.00 0.00 0.00 0.00 0.00 0.00 0.00 0.00 0.00
0.00 0.00 0.00 0.00 0.00 0.00 0.00 0.00 0.00 0.00 0.00 0.00 0.00 0.00 0.00 0.00 0.00 0.00 0.00 0.00 0.00 0.00 0.00 0.00 0.00 0.00 0.00 0.00 0.00 0.00 0.00 0.00 0.00 0.00 0.00 0.00 0.00 0.00 0.00 0.00 0.00 0.00 0.00
0.00 0.00 0.00 0.00 0.00 0.00 0.00 0.00 0.00 0.00 0.00 0.00 0.00 0.00 0.00 0.00 0.00 0.00 0.00 0.00 0.00 0.00 0.00 0.00 0.00 0.00 0.00 0.00 0.00 0.00 0.00 0.00 0.00 0.00 0.00 0.00 0.00 0.00 0.00 0.00 0.00 0.00 0.00
0.00 0.00 0.00 0.00 0.00 0.00 0.00 0.00 0.00 0.00 0.00 0.00 0.00 0.00 0.00 0.00 0.00 0.00 0.00 0.00 0.00 0.00 0.00 0.00 0.00 0.00 0.00 0.00 0.00 0.00 0.00 0.00 0.00 0.00 0.00 0.00 0.00 0.00 0.00 0.00 0.00 0.00 0.00
0.00 0.00 0.00 0.00 0.00 0.00 0.00 0.00 0.00 0.00 0.00 0.00 0.00 0.00 0.00 0.00 0.00 0.00 0.00 0.00 0.00 0.00 0.00 0.00 0.00 0.00 0.00 0.00 0.00 0.00 0.00 0.00 0.00 0.00 0.00 0.01 0.00 0.00 0.00 0.02 0.00 0.00 0.00
0.00 0.00 0.00 0.00 0.00 0.00 0.00 0.00 0.00 0.00 0.00 0.00 0.00 0.00 0.00 0.00 0.00 0.00 0.04 0.00 0.00 0.00 0.00 0.00 0.00 0.00 0.00 0.00 0.00 0.00 0.00 0.00 0.00 0.00 0.02 0.05 0.05 0.02 0.02 0.05 0.03 0.02 0.00
0.00 0.00 0.00 0.00 0.00 0.00 0.00 0.00 0.00 0.00 0.00 0.00 0.00 0.00 0.00 0.00 0.00 0.02 0.06 0.01 0.00 0.00 0.00 0.00 0.00 0.00 0.00 0.00 0.00 0.00 0.00 0.00 0.00 0.00 0.02 0.07 0.06 0.05 0.06 0.11 0.09 0.09 0.04
0.00 0.00 0.00 0.00 0.00 0.00 0.00 0.00 0.00 0.00 0.00 0.00 0.00 0.00 0.00 0.00 0.00 0.01 0.06 0.03 0.01 0.00 0.00 0.00 0.00 0.00 0.00 0.00 0.00 0.00 0.00 0.00 0.00 0.00 0.00 0.01 0.03 0.04 0.04 0.07 0.10 0.08 0.08
0.00 0.00 0.00 0.00 0.00 0.00 0.00 0.00 0.00 0.00 0.00 0.00 0.00 0.00 0.00 0.00 0.00 0.00 0.02 0.01 0.03 0.01 0.00 0.00 0.00 0.00 0.00 0.00 0.00 0.00 0.00 0.00 0.00 0.00 0.00 0.00 0.00 0.00 0.01 0.03 0.06 0.06 0.07
0.00 0.00 0.00 0.00 0.00 0.00 0.00 0.00 0.00 0.00 0.00 0.00 0.00 0.00 0.00 0.00 0.00 0.00 0.00 0.00 0.01 0.00 0.00 0.00 0.00 0.00 0.00 0.00 0.00 0.00 0.00 0.00 0.00 0.00 0.00 0.00 0.00 0.00 0.00 0.00 0.01 0.00 0.01
0.00 0.00 0.00 0.00 0.00 0.00 0.00 0.00 0.00 0.00 0.00 0.00 0.00 0.00 0.00 0.00 0.00 0.00 0.00 0.00 0.02 0.01 0.01 0.00 0.00 0.00 0.00 0.00 0.00 0.00 0.00 0.00 0.00 0.00 0.00 0.00 0.00 0.00 0.00 0.00 0.00 0.01 0.03
0.00 0.00 0.00 0.00 0.00 0.00 0.00 0.00 0.00 0.00 0.00 0.00 0.00 0.00 0.00 0.00 0.00 0.00 0.00 0.00 0.03 0.04 0.04 0.02 0.00 0.00 0.00 0.00 0.00 0.00 0.00 0.00 0.00 0.00 0.00 0.00 0.00 0.00 0.00 0.00 0.00 0.00 0.02
MSLP
1013.92 1014.13 1014.95 1015.01 1015.23 1015.23 1015.17 1015.22 1015.34 1015.41 1015.53 1015.67 1015.70 1015.78 1015.76 1015.74 1015.88 1015.89 1015.95 1016.11 1016.10 1016.10 1016.18 1016.22 1016.22 1016.26 1016.39 1016.47 1016.42 1016.45 1016.58 1016.60 1016.64 1016.67 1016.59 1016.51 1016.57 1016.66 1016.61 1016.61 1016.32 1016.13 1016.31
1013.67 1014.07 1015.03 1015.14 1015.24 1015.27 1015.21 1015.35 1015.45 1015.68 1015.77 1015.90 1015.92 1015.97 1015.98 1016.03 1016.01 1015.99 1016.09 1016.09 1016.07 1016.15 1016.23 1016.27 1016.28 1016.28 1016.29 1016.38 1016.38 1016.46 1016.52 1016.55 1016.56 1016.60 1016.50 1016.37 1016.48 1016.43 1016.31 1016.47 1016.37 1016.52 1016.43
1013.35 1014.13 1014.66 1015.20 1015.39 1015.49 1015.63 1015.47 1015.69 1015.88 1015.94 1016.03 1016.04 1016.18 1016.10 1016.12 1016.08 1016.16 1016.25 1016.29 1016.27 1016.26 1016.32 1016.33 1016.29 1016.29 1016.30 1016.33 1016.38 1016.35 1016.34 1016.46 1016.49 1016.36 1016.22 1015.57 1015.57 1016.25 1016.30 1016.43 1016.36 1016.66 1016.87
1012.98 1013.40 1014.16 1015.46 1015.55 1015.63 1015.65 1015.87 1015.99 1016.06 1016.11 1016.23 1016.26 1016.33 1016.29 1016.22 1016.22 1016.27 1016.37 1016.40 1016.36 1016.34 1016.32 1016.28 1016.19 1016.18 1016.18 1016.28 1016.27 1016.28 1016.31 1016.32 1016.34 1016.29 1015.77 1015.33 1015.17 1016.32 1016.47 1016.49 1016.69 1016.89 1017.14
1013.15 1013.36 1014.90 1015.57 1015.72 1015.87 1016.04 1016.17 1016.20 1016.25 1016.34 1016.37 1016.46 1016.49 1016.37 1016.32 1016.37 1016.46 1016.45 1016.42 1016.35 1016.32 1016.28 1016.21 1016.16 1016.08 1016.07 1016.12 1016.17 1016.21 1016.22 1016.25 1016.32 1016.11 1015.48 1015.67 1015.79 1016.12 1016.52 1016.69 1016.88 1017.04 1017.16
1013.15 1013.43 1015.50 1015.74 1015.90 1016.04 1016.22 1016.36 1016.43 1016.49 1016.55 1016.65 1016.57 1016.45 1016.42 1016.48 1016.52 1016.43 1016.35 1016.35 1016.37 1016.34 1016.24 1016.13 1016.04 1015.99 1016.00 1016.06 1016.18 1016.22 1016.24 1016.29 1016.29 1015.30 1015.35 1015.70 1015.67 1016.48 1016.91 1017.06 1017.12 1017.22 1017.41
1013.58 1013.85 1015.19 1015.99 1016.17 1016.32 1016.43 1016.47 1016.57 1016.68 1016.69 1016.64 1016.58 1016.57 1016.54 1016.52 1016.47 1016.45 1016.38 1016.34 1016.27 1016.09 1015.97 1015.95 1015.92 1015.90 1015.90 1015.89 1015.95 1016.04 1016.09 1016.12 1015.62 1014.92 1015.17 1015.37 1015.37 1016.46 1017.01 1017.20 1017.28 1017.41 1017.67
1013.58 1013.82 1015.15 1016.07 1016.27 1016.43 1016.45 1016.54 1016.67 1016.71 1016.70 1016.72 1016.65 1016.57 1016.43 1016.34 1016.36 1016.38 1016.31 1016.21 1015.99 1015.91 1015.84 1015.77 1015.77 1015.74 1015.80 1015.86 1015.94 1015.95 1016.06 1016.17 1015.28 1014.79 1014.97 1015.01 1015.62 1016.38 1016.78 1016.88 1017.02 1017.13 1017.29
1013.94 1014.10 1014.69 1015.15 1016.13 1016.46 1016.65 1016.78 1016.84 1016.80 1016.79 1016.73 1016.66 1016.50 1016.29 1016.17 1016.15 1016.14 1016.08 1015.94 1015.93 1015.91 1015.74 1015.58 1015.63 1015.70 1015.66 1015.72 1015.80 1015.80 1015.87 1015.87 1015.24 1014.54 1014.65 1014.75 1015.52 1016.24 1016.53 1016.60 1016.69 1016.76 1016.96
1014.36 1014.41 1014.83 1015.19 1015.44 1015.45 1015.93 1016.80 1016.87 1016.83 1016.80 1016.68 1016.51 1016.41 1016.27 1016.00 1015.93 1015.93 1015.82 1015.74 1015.77 1015.67 1015.53 1015.55 1015.49 1015.40 1015.39 1015.54 1015.58 1015.58 1015.69 1015.65 1014.81 1014.33 1014.47 1014.48 1015.67 1016.07 1016.24 1016.14 1016.27 1016.41 1016.65
1014.52 1014.89 1015.07 1015.33 1015.83 1016.09 1016.04 1016.28 1016.68 1016.69 1016.59 1016.37 1016.23 1016.31 1015.88 1015.08 1015.08 1015.18 1015.44 1015.52 1015.56 1015.32 1015.10 1015.18 1015.24 1015.24 1015.24 1014.95 1015.00 1015.32 1015.30 1014.11 1013.66 1013.85 1014.03 1015.01 1015.82 1016.02 1016.09 1016.03 1015.95 1016.06 1016.33
1014.19 1014.57 1015.04 1015.19 1015.43 1015.84 1015.64 1016.02 1016.00 1015.76 1015.52 1015.75 1015.82 1015.78 1015.25 1015.33 1015.38 1015.30 1015.28 1015.55 1015.32 1015.10 1014.84 1014.79 1014.79 1014.77 1014.51 1013.26 1014.33 1014.75 1013.79 1013.74 1013.68 1013.87 1014.65 1015.49 1016.00 1016.20 1016.31 1016.31 1016.18 1016.05 1016.13
1014.09 1014.46 1015.00 1015.41 1015.67 1015.42 1015.41 1015.53 1015.33 1015.25 1015.27 1015.45 1015.74 1015.63 1015.46 1015.22 1015.09 1014.58 1014.36 1014.15 1014.03 1014.53 1013.29 1013.63 1013.42 1013.05 1013.13 1013.25 1013.28 1013.38 1013.78 1013.57 1013.44 1013.53 1015.12 1015.85 1016.17 1016.40 1016.41 1016.38 1016.35 1016.30 1016.26
1014.10 1014.43 1014.88 1015.26 1015.86 1015.70 1015.57 1015.42 1015.42 1015.10 1015.19 1014.88 1015.20 1015.42 1015.21 1014.49 1014.81 1014.72 1014.21 1014.16 1014.17 1013.62 1013.82 1013.42 1012.93 1013.43 1013.36 1013.56 1013.51 1013.31 1013.26 1013.51 1013.34 1013.70 1015.23 1016.01 1016.22 1016.33 1016.42 1016.49 1016.47 1016.40 1016.31
1014.14 1014.54 1014.90 1015.55 1015.98 1015.96 1016.14 1015.67 1015.63 1015.37 1015.02 1014.99 1014.95 1015.18 1015.03 1014.82 1014.87 1014.57 1014.44 1014.11 1014.06 1013.74 1013.28 1013.46 1013.17 1013.34 1013.34 1013.23 1013.38 1013.47 1013.70 1013.47 1013.39 1013.57 1014.27 1015.95 1016.24 1016.30 1016.37 1016.49 1016.53 1016.55 1016.56
1014.04 1014.53 1015.01 1015.48 1015.72 1015.87 1015.83 1015.94 1015.66 1015.27 1015.13 1014.88 1014.84 1014.93 1015.18 1014.89 1014.92 1014.45 1014.26 1013.93 1013.58 1013.74 1013.58 1013.52 1013.61 1013.50 1013.23 1012.96 1013.29 1013.35 1013.45 1013.15 1013.50 1013.66 1013.77 1015.24 1016.01 1016.20 1016.30 1016.30 1016.40 1016.53 1016.76
1013.87 1014.33 1014.71 1015.14 1015.35 1015.74 1015.78 1015.50 1015.26 1014.97 1014.68 1014.69 1014.76 1015.07 1015.12 1015.08 1015.02 1015.11 1014.39 1014.05 1013.81 1013.93 1013.78 1013.25 1013.50 1013.16 1013.09 1013.08 1013.09 1013.03 1012.92 1013.21 1013.16 1013.74 1013.93 1014.48 1015.71 1016.27 1016.50 1016.61 1016.46 1016.65 1016.76
1013.51 1014.17 1014.58 1014.68 1015.08 1015.46 1015.48 1015.27 1015.00 1014.93 1014.71 1014.58 1014.62 1014.68 1014.98 1015.00 1015.04 1014.79 1014.22 1014.08 1014.24 1013.75 1013.47 1013.52 1013.53 1013.12 1013.03 1012.85 1012.78 1012.73 1012.65 1012.95 1013.33 1013.81 1013.81 1014.35 1014.87 1014.77 1016.23 1016.17 1016.56 1016.36 1016.62
1013.60 1014.19 1014.55 1014.83 1015.04 1015.30 1015.45 1015.07 1015.15 1015.14 1014.67 1014.62 1014.53 1014.55 1014.99 1014.90 1014.87 1015.04 1014.48 1014.21 1014.41 1013.66 1013.87 1013.98 1013.91 1013.97 1013.41 1013.28 1012.83 1012.66 1012.94 1012.88 1013.21 1013.07 1013.53 1014.12 1014.14 1014.69 1015.67 1016.20 1016.19 1016.81 1016.73
1013.47 1014.19 1014.58 1014.85 1015.11 1015.44 1015.44 1015.47 1014.98 1014.79 1014.44 1014.43 1014.46 1014.36 1014.78 1014.65 1014.90 1014.97 1014.78 1014.73 1014.33 1013.95 1013.98 1014.43 1014.51 1014.24 1014.05 1013.74 1013.11 1012.53 1012.71 1012.80 1012.76 1013.15 1013.27 1014.06 1014.53 1015.07 1015.17 1015.80 1015.85 1016.27 1016.85
1012.97 1013.70 1014.33 1014.74 1015.09 1015.34 1015.20 1014.88 1014.64 1014.33 1014.37 1014.25 1014.31 1014.78 1014.89 1014.77 1014.75 1014.98 1014.50 1014.51 1014.16 1014.60 1014.94 1014.79 1014.34 1014.08 1013.77 1014.05 1013.18 1012.42 1012.31 1012.73 1012.86 1012.91 1012.93 1014.24 1014.42 1014.81 1015.10 1015.72 1016.31 1016.51 1016.72
1012.50 1013.20 1013.90 1014.37 1014.80 1015.27 1015.19 1015.10 1014.77 1014.60 1014.34 1014.36 1014.38 1014.69 1014.69 1014.77 1014.80 1014.79 1014.94 1014.68 1014.94 1014.23 1014.88 1014.93 1014.94 1014.04 1013.90 1014.49 1013.79 1012.81 1012.25 1012.30 1012.52 1012.83 1013.04 1013.33 1014.07 1014.59 1015.10 1015.57 1015.56 1015.79 1016.10
1011.93 1012.62 1013.23 1013.91 1014.41 1014.83 1015.02 1015.20 1015.30 1015.03 1014.89 1014.52 1014.36 1014.47 1014.53 1014.73 1014.76 1014.86 1014.89 1014.85 1014.86 1014.42 1014.39 1014.84 1014.98 1014.87 1014.21 1014.19 1014.80 1014.12 1013.10 1012.77 1012.83 1012.92 1013.47 1013.73 1014.32 1014.76 1015.38 1015.51 1015.43 1015.96 1016.69
1011.08 1011.97 1012.87 1013.59 1014.18 1014.67 1015.02 1014.99 1015.11 1014.66 1014.21 1013.94 1014.28 1014.33 1014.62 1014.76 1014.68 1014.61 1014.78 1014.74 1014.82 1014.56 1014.90 1014.78 1015.12 1015.16 1015.14 1014.43 1014.23 1014.75 1015.01 1014.66 1013.60 1012.68 1012.91 1014.04 1014.47 1014.84 1015.32 1014.85 1015.79 1016.74 1017.25
1010.34 1011.14 1012.11 1013.12 1013.67 1014.12 1014.66 1015.04 1015.04 1015.03 1014.24 1014.26 1014.31 1014.71 1014.76 1014.68 1014.55 1014.34 1014.48 1014.54 1014.83 1014.34 1014.68 1014.97 1015.21 1015.51 1015.04 1015.08 1014.81 1014.79 1014.61 1014.21 1014.54 1013.97 1013.08 1013.15 1013.57 1014.66 1015.51 1016.64 1016.95 1017.50 1017.68
1009.75 1010.62 1011.32 1012.36 1013.25 1013.78 1014.29 1014.70 1014.97 1014.76 1014.70 1014.38 1014.44 1014.28 1014.10 1014.05 1014.01 1014.13 1014.11 1014.24 1014.32 1014.47 1014.56 1014.62 1015.10 1015.33 1015.46 1015.49 1015.26 1015.03 1014.58 1014.34 1014.07 1013.95 1013.40 1013.29 1013.78 1014.53 1016.45 1017.53 1017.68 1017.77 1017.76
Thickness
5758 5758 5753 5752 5752 5753 5757 5757 5758 5758 5758 5758 5759 5759 5758 5759 5757 5757 5756 5754 5754 5753 5751 5750 5750 5749 5747 5745 5745 5741 5739 5739 5741 5744 5745 5745 5746 5746 5746 5748 5750 5751 5752
5764 5761 5754 5754 5753 5756 5758 5758 5759 5758 5758 5758 5758 5759 5759 5759 5759 5758 5757 5757 5756 5755 5753 5752 5751 5751 5750 5747 5746 5745 5745 5742 5743 5745 5748 5748 5747 5749 5751 5749 5748 5748 5752
5770 5763 5760 5758 5758 5759 5759 5761 5759 5758 5759 5759 5759 5759 5759 5759 5759 5758 5757 5757 5757 5756 5754 5753 5753 5753 5753 5752 5750 5750 5750 5747 5748 5750 5752 5756 5756 5753 5752 5751 5751 5750 5748
5776 5773 5768 5759 5759 5759 5759 5759 5758 5759 5760 5760 5760 5760 5759 5760 5760 5759 5758 5758 5758 5757 5756 5756 5756 5756 5756 5755 5755 5754 5753 5753 5752 5753 5756 5759 5761 5754 5753 5753 5752 5750 5748
5778 5776 5765 5761 5761 5760 5759 5759 5760 5761 5761 5762 5761 5760 5761 5762 5761 5760 5759 5759 5760 5759 5759 5759 5758 5758 5759 5758 5757 5757 5756 5756 5756 5758 5762 5760 5759 5757 5754 5753 5752 5750 5749
5781 5779 5765 5764 5764 5762 5762 5761 5762 5762 5762 5761 5763 5764 5764 5764 5763 5763 5764 5763 5762 5762 5762 5762 5762 5762 5761 5760 5758 5758 5758 5757 5758 5764 5763 5760 5760 5755 5750 5748 5748 5747 5746
5779 5778 5768 5764 5764 5764 5763 5764 5763 5763 5764 5765 5765 5766 5767 5767 5768 5768 5767 5766 5766 5767 5767 5766 5765 5764 5763 5763 5762 5761 5760 5760 5763 5768 5766 5764 5763 5754 5749 5745 5745 5743 5741
5780 5780 5770 5764 5764 5764 5764 5765 5765 5766 5767 5767 5769 5770 5772 5773 5773 5771 5770 5770 5772 5771 5770 5770 5769 5769 5768 5766 5764 5763 5762 5761 5767 5770 5768 5767 5763 5756 5751 5749 5747 5745 5744
5780 5780 5776 5773 5767 5765 5765 5765 5767 5769 5770 5771 5773 5775 5777 5777 5776 5775 5775 5776 5775 5774 5773 5774 5772 5770 5769 5768 5768 5767 5765 5764 5767 5772 5772 5769 5764 5757 5753 5751 5750 5748 5745
5780 5780 5777 5775 5774 5775 5773 5769 5770 5772 5774 5775 5778 5779 5780 5782 5781 5780 5781 5780 5778 5778 5778 5776 5776 5776 5774 5772 5771 5770 5769 5768 5773 5776 5775 5774 5764 5759 5755 5754 5751 5748 5745
5780 5779 5777 5776 5774 5773 5776 5776 5776 5777 5779 5781 5782 5782 5786 5791 5789 5788 5786 5784 5782 5783 5783 5782 5780 5779 5778 5780 5779 5774 5774 5782 5784 5782 5779 5771 5763 5759 5755 5753 5752 5748 5744
5783 5785 5783 5781 5781 5780 5782 5782 5784 5787 5789 5788 5788 5789 5792 5791 5789 5789 5789 5786 5787 5788 5788 5786 5786 5785 5787 5795 5785 5782 5787 5786 5786 5782 5775 5767 5759 5755 5751 5748 5746 5744 5741
5789 5790 5788 5785 5783 5787 5788 5789 5791 5792 5794 5793 5791 5791 5793 5794 5794 5797 5797 5798 5798 5793 5801 5798 5798 5800 5799 5797 5796 5793 5788 5788 5788 5785 5771 5763 5757 5753 5749 5746 5743 5740 5736
5792 5793 5792 5790 5786 5789 5790 5792 5792 5796 5796 5799 5797 5795 5797 5801 5798 5798 5800 5799 5799 5802 5800 5802 5804 5800 5800 5797 5796 5797 5795 5790 5789 5783 5768 5759 5754 5750 5746 5743 5740 5736 5732
5794 5795 5795 5792 5790 5791 5790 5793 5793 5797 5800 5800 5800 5798 5798 5799 5799 5800 5800 5802 5801 5803 5807 5804 5805 5802 5801 5801 5797 5794 5790 5790 5787 5782 5773 5757 5751 5746 5742 5735 5731 5728 5726
5799 5797 5798 5796 5794 5794 5795 5794 5796 5799 5801 5802 5803 5801 5798 5800 5799 5802 5803 5805 5807 5804 5805 5804 5803 5803 5803 5802 5798 5794 5792 5791 5785 5781 5775 5760 5748 5744 5739 5735 5728 5721 5716
5803 5803 5801 5801 5800 5798 5798 5800 5801 5803 5805 5805 5804 5802 5799 5799 5800 5798 5804 5806 5806 5804 5803 5807 5804 5805 5804 5802 5800 5799 5796 5790 5788 5779 5772 5763 5750 5740 5733 5728 5724 5717 5712
5810 5804 5804 5806 5804 5801 5802 5803 5805 5806 5808 5808 5807 5805 5802 5801 5800 5801 5806 5806 5803 5806 5807 5806 5804 5806 5804 5803 5801 5799 5797 5791 5784 5775 5770 5760 5750 5745 5729 5725 5717 5713 5704
5811 5808 5806 5805 5804 5803 5802 5805 5805 5806 5810 5810 5810 5808 5803 5802 5801 5799 5803 5805 5802 5807 5805 5803 5801 5799 5799 5798 5799 5798 5793 5790 5783 5779 5770 5760 5752 5741 5727 5716 5709 5698 5692
5814 5809 5808 5807 5805 5802 5804 5803 5808 5810 5812 5812 5812 5811 5806 5805 5802 5800 5801 5801 5803 5806 5804 5800 5796 5797 5795 5794 5795 5796 5793 5789 5786 5777 5771 5756 5745 5733 5724 5708 5699 5688 5680
5818 5813 5810 5807 5806 5804 5805 5807 5809 5810 5812 5814 5813 5808 5806 5806 5804 5802 5805 5804 5805 5800 5796 5798 5799 5796 5796 5792 5791 5794 5792 5787 5782 5776 5773 5752 5743 5731 5721 5702 5689 5678 5668
5820 5817 5813 5811 5809 5806 5807 5808 5811 5812 5814 5812 5810 5807 5806 5805 5803 5803 5802 5803 5799 5804 5797 5795 5792 5795 5793 5787 5782 5786 5776 5779 5779 5774 5768 5759 5744 5731 5717 5700 5689 5677 5664
5823 5821 5818 5815 5812 5810 5810 5809 5807 5809 5808 5808 5809 5808 5807 5804 5803 5802 5801 5801 5800 5803 5800 5795 5790 5786 5785 5787 5779 5774 5769 5762 5764 5768 5757 5749 5736 5725 5710 5698 5686 5671 5654
5829 5828 5822 5817 5814 5811 5809 5807 5804 5805 5805 5812 5810 5810 5806 5803 5803 5803 5801 5800 5799 5801 5795 5794 5790 5785 5781 5777 5780 5771 5764 5757 5752 5750 5755 5741 5730 5719 5706 5697 5678 5661 5644
5836 5831 5827 5820 5816 5814 5810 5807 5805 5801 5810 5812 5811 5806 5805 5805 5804 5805 5802 5801 5799 5802 5797 5792 5787 5780 5782 5774 5769 5765 5762 5760 5750 5742 5736 5732 5728 5716 5698 5678 5665 5649 5634
5839 5834 5831 5823 5816 5815 5812 5808 5804 5804 5803 5806 5805 5806 5809 5811 5811 5807 5805 5803 5801 5799 5797 5794 5788 5782 5776 5771 5766 5762 5759 5751 5745 5739 5734 5728 5716 5708 5685 5667 5654 5638 5626